If you wish to contribute or participate in the discussions about articles you are invited to join SKYbrary as a registered user

 Actions

Kryvyi Rih International Airport

From SKYbrary Wiki

UKDR
Airport
ICAO: UKDR
Summary
Name Kryvyi Rih International Airport
Region Europe
Territory Ukraine UA.gif
Location Kryvyi Rih
Serving
Coordinates 48° 2' 39.13" N, 33° 12' 28.93" E
Runways
Designator Length Width Surface ROPS
18/36 2500 m8,202.1 ft
42 m137.795 ft
CON /


METAR
Observation UKDR 252230Z 18005MPS 100V210 CAVOK 02/00 Q1007 R18/09//70 NOSIG
Station Krivyy Rih / Dnipropetrovs'k
Date/Time 25 February 2020 22:30:00
Wind direction 180°
Wind speed kts
Lowest cloud amount clouds and visibility OK
Temperature 2°C
Dew point 0°C
Humidity 86%
QNH 1007 hPa
Weather condition n/a

Kryvyi Rih/Lozovatka International Airport (IATA: KWG) is an airport near Kryvyi Rih, Ukraine. It is located 4.2 km west of the city of Lozovatka, and 17.5 km northwest of the city of Kryvyi Rih.